Stations météo

Publicité
Arkona, Allemagne (10091): Température de l'air & dewpoint: 19.09.2018 16:00:00 - 25.09.2018 16:00:00 (CEST)Arkona, Allemagne (10091): Température de l'air 5cm & Température de l'air -5cm: 19.09.2018 16:00:00 - 25.09.2018 16:00:00 (CEST)Arkona, Allemagne (10091): Température de l'air -20cm & Température de l'air -100cm: 19.09.2018 16:00:00 - 25.09.2018 16:00:00 (CEST)Arkona, Allemagne (10091): water temperature: 19.09.2018 16:00:00 - 25.09.2018 16:00:00 (CEST)Arkona, Allemagne (10091): Vitesse du vent & gusts: 19.09.2018 16:00:00 - 25.09.2018 16:00:00 (CEST)Arkona, Allemagne (10091): Direction du vent: 19.09.2018 16:00:00 - 25.09.2018 16:00:00 (CEST)Arkona, Allemagne (10091): reduced air pressure: 19.09.2018 16:00:00 - 25.09.2018 16:00:00 (CEST)Arkona, Allemagne (10091): visibility: 19.09.2018 16:00:00 - 25.09.2018 16:00:00 (CEST)Arkona, Allemagne (10091): Ensoleillement: 19.09.2018 16:00:00 - 25.09.2018 16:00:00 (CEST)Arkona, Allemagne (10091): Quantités de précipitations: 19.09.2018 16:00:00 - 25.09.2018 16:00:00 (CEST)
Date & Time tt [°C] td [°C] tt 5cm [°C] tt -5cm [°C] tt -20cm [°C] tt -100cm [°C] tw [°C] ff [km/h] ff [knt] fx [km/h] fx [knt] dd ppp [hPa] vv [km] sd [min] rr [mm]
25.09.2018 16:00:00 12,9 2,7 14,7 15,7 13,1 15,9 15,6 22 12 31 17 W 1035,5 36 60 0,0
25.09.2018 15:00:00 13,1 3,5 15,9 16,4 12,6 16,0 15,4 16 9 30 16 WNW 1035,6 67 57 0,0
25.09.2018 14:00:00 12,4 3,6 13,6 15,6 12,0 16,0 15,3 19 11 34 19 WNW 1035,8 67 51 0,0
25.09.2018 13:00:00 13,3 4,6 16,2 14,7 11,4 16,0 15,3 22 12 43 23 WNW 1035,2 48 51 0,0
25.09.2018 12:00:00 12,9 4,6 15,0 13,1 11,0 16,0 15,3 21 11 39 21 NW 1034,8 48 55 0,0
25.09.2018 11:00:00 12,3 2,9 13,6 10,9 10,7 16,0 15,7 26 14 42 23 NW 1034,0 43 57 0,0
25.09.2018 10:00:00 12,1 2,6 12,5 8,9 10,7 16,1 15,7 24 13 45 24 NW 1033,3 54 59 0,0
25.09.2018 09:00:00 11,3 5,5 10,7 8,8 10,6 16,1 15,6 28 15 45 25 NW 1032,5 56 15 0,0
25.09.2018 08:00:00 10,4 4,5 10,0 8,4 10,7 16,1 15,3 24 13 46 25 NNW 1031,7 59 0 0,0
25.09.2018 07:00:00 11,0 5,6 9,4 8,1 10,7 16,1 15,6 25 13 39 21 WNW 1030,8 48 0 0,0
25.09.2018 06:00:00 11,2 4,0 10,2 8,0 10,8 16,1 15,7 29 16 39 21 NW 1030,4 65 0 0,0
25.09.2018 05:00:00 10,8 4,8 9,2 7,8 10,9 16,1 15,8 21 11 44 24 NW 1029,7 64 0 0,1
25.09.2018 04:00:00 10,4 2,0 8,7 7,4 11,1 16,2 15,8 26 14 44 24 NW 1029,3 72 0 0,0
25.09.2018 03:00:00 8,3 3,6 5,7 7,6 11,3 16,2 15,9 15 8 61 33 N 1028,9 60 0 2,7
25.09.2018 02:00:00 11,1 3,0 9,9 7,9 11,5 16,2 16,0 17 9 49 27 NNW 1028,1 64 0 0,8
25.09.2018 01:00:00 11,3 4,1 10,0 8,0 11,7 16,2 16,0 21 12 45 24 NNW 1027,2 55 0 0,0
25.09.2018 00:00:00 10,9 3,3 9,8 8,2 11,9 16,2 16,0 25 13 53 29 NNW 1027,0 70 0 0,0
24.09.2018 23:00:00 9,9 4,8 8,7 8,6 12,1 16,2 16,0 37 20 56 30 WNW 1026,5 45 0 0,0
24.09.2018 22:00:00 9,4 4,1 7,1 8,9 12,3 16,3 16,1 13 7 42 23 N 1025,7 45 0 0,3
24.09.2018 21:00:00 9,2 4,4 7,1 9,2 12,5 16,3 16,2 12 7 57 31 N 1025,0 36 0 0,1
24.09.2018 20:00:00 10,9 3,7 10,1 9,3 12,7 16,3 - 16 9 74 40 NW 1023,7 54 0 0,1
24.09.2018 19:00:00 10,7 1,5 9,8 9,8 13,0 16,3 16,2 39 21 66 36 NW 1023,2 48 2 0,1
24.09.2018 18:00:00 10,6 2,7 9,8 10,5 13,3 16,3 16,2 33 18 58 32 NW 1022,4 54 11 0,9
24.09.2018 17:00:00 8,7 4,2 6,2 10,5 13,4 16,4 16,2 26 14 45 25 NNW 1022,6 14 2 4,5
24.09.2018 16:00:00 11,7 3,8 11,8 15,0 13,1 16,4 16,3 25 13 49 26 WNW 1021,8 40 49 0,0
24.09.2018 15:00:00 12,8 3,9 15,5 14,2 12,8 16,4 16,3 34 18 56 31 NW 1021,6 64 58 0,0
24.09.2018 14:00:00 12,7 4,0 15,3 12,1 12,7 16,4 16,5 34 19 63 34 NW 1020,9 57 18 0,0
24.09.2018 13:00:00 9,9 3,0 10,2 11,9 12,6 16,4 16,5 43 23 75 41 NW 1020,6 72 22 0,0
24.09.2018 12:00:00 12,0 5,1 13,4 12,9 12,3 16,4 16,5 48 26 71 38 NW 1019,1 65 56 0,0
24.09.2018 11:00:00 12,1 4,2 13,5 11,6 12,2 16,5 16,6 42 23 65 35 WNW 1017,9 75 54 0,0
24.09.2018 10:00:00 10,9 4,6 10,8 9,9 12,2 16,5 16,7 40 22 61 33 NW 1016,9 61 55 0,0
24.09.2018 09:00:00 10,5 6,1 10,3 9,5 12,3 16,5 16,5 24 13 72 39 NNW 1015,7 63 11 0,0
24.09.2018 08:00:00 11,3 6,7 10,8 9,5 12,4 16,5 16,5 48 26 67 36 NW 1014,2 42 25 0,0
24.09.2018 07:00:00 10,3 5,6 8,6 9,4 12,6 16,5 16,6 31 17 47 25 NW 1013,6 55 0 1,3
24.09.2018 06:00:00 9,8 6,5 7,8 9,9 12,7 16,5 16,6 24 13 64 35 NNW 1012,9 4,0 0 1,1
24.09.2018 05:00:00 11,4 6,6 11,0 10,1 12,8 16,6 16,7 39 21 64 34 WNW 1012,2 39 0 0,0
24.09.2018 04:00:00 11,4 6,8 10,7 10,3 12,9 16,6 16,7 40 21 60 32 WNW 1011,5 38 0 0,0
24.09.2018 03:00:00 11,6 7,3 11,2 10,4 13,0 16,6 16,7 38 21 61 33 WNW 1010,6 36 0 0,0
24.09.2018 02:00:00 11,7 6,6 11,1 10,3 13,1 16,6 16,8 37 20 61 33 WNW 1009,9 39 0 0,0
24.09.2018 01:00:00 11,6 5,9 10,8 10,2 13,3 16,6 16,8 33 18 58 31 WNW 1009,4 43 0 0,0
24.09.2018 00:00:00 11,9 6,4 11,0 10,5 13,5 16,6 16,9 37 20 58 31 NW 1008,7 51 0 0,0
23.09.2018 23:00:00 12,5 6,5 11,7 10,8 13,6 16,7 16,9 32 17 48 26 NW 1008,2 58 0 0,0
23.09.2018 22:00:00 12,5 5,7 11,8 11,1 13,8 16,7 17,0 29 16 46 25 WNW 1007,6 55 0 0,0
23.09.2018 21:00:00 12,8 5,6 12,1 11,3 14,0 16,7 17,1 24 13 39 21 WNW 1007,3 64 0 0,0
23.09.2018 20:00:00 12,6 6,1 12,0 11,6 14,1 16,7 17,2 23 13 35 19 NW 1007,0 48 0 0,0
23.09.2018 19:00:00 12,7 6,2 11,7 12,0 14,3 16,7 17,2 18 10 33 18 WNW 1007,1 54 0 0,0
23.09.2018 18:00:00 12,8 5,5 12,1 12,7 14,4 16,7 17,2 18 10 29 16 W 1007,4 50 0 0,0
23.09.2018 17:00:00 13,1 6,8 12,8 13,4 14,4 16,7 17,3 19 10 31 17 W 1008,0 52 0 0,0
23.09.2018 16:00:00 12,9 6,6 12,5 14,0 14,4 16,8 17,3 24 13 37 20 W 1008,9 54 0 0,4
23.09.2018 15:00:00 12,0 7,7 10,7 15,3 14,1 16,8 17,3 23 12 40 22 W 1009,2 20 27 0,1
23.09.2018 14:00:00 13,5 6,9 14,9 14,7 13,9 16,8 17,3 32 18 45 24 WSW 1009,9 64 28 0,0
23.09.2018 13:00:00 13,7 6,4 14,7 14,4 13,6 16,8 17,3 33 18 46 25 W 1010,7 42 47 0,0
23.09.2018 12:00:00 13,9 7,5 15,4 13,6 13,4 16,8 17,3 37 20 48 26 W 1010,6 59 39 0,0
23.09.2018 11:00:00 13,4 7,6 14,5 12,9 13,3 16,8 17,3 35 19 48 26 W 1011,1 69 36 0,0
23.09.2018 10:00:00 13,0 7,6 13,4 11,6 13,2 16,8 17,3 34 18 50 27 W 1011,1 54 17 0,0
23.09.2018 09:00:00 12,8 7,2 12,8 11,0 13,3 16,9 17,3 37 20 48 26 W 1010,9 37 20 0,0
23.09.2018 08:00:00 12,4 7,2 11,8 10,6 13,4 16,9 17,3 37 20 55 30 W 1010,7 48 0 0,0
23.09.2018 07:00:00 12,3 6,9 11,4 10,5 13,5 16,9 17,2 41 22 56 31 W 1010,4 48 0 0,0
23.09.2018 06:00:00 12,3 7,2 11,4 10,7 13,6 16,9 17,1 45 25 55 30 W 1010,6 48 0 0,0
23.09.2018 05:00:00 12,3 7,4 11,7 10,8 13,7 16,9 17,1 42 23 60 33 W 1011,1 38 0 0,0
23.09.2018 04:00:00 12,4 7,9 11,9 11,0 13,8 16,9 17,1 42 23 58 31 W 1011,2 38 0 0,0
23.09.2018 03:00:00 12,6 7,9 12,0 10,9 13,9 16,9 17,1 43 23 58 32 W 1011,3 33 0 0,0
23.09.2018 02:00:00 12,5 7,2 11,9 10,8 14,1 16,9 17,1 47 25 64 34 W 1011,4 34 0 0,0
23.09.2018 01:00:00 12,6 6,8 11,7 10,7 14,3 16,9 17,2 47 26 62 33 W 1011,4 40 0 0,0
23.09.2018 00:00:00 12,7 6,7 11,6 10,9 14,5 17,0 17,2 51 27 63 34 W 1011,4 41 0 0,0
22.09.2018 23:00:00 11,9 6,6 10,2 11,2 14,7 17,0 17,3 43 23 63 34 W 1011,6 39 0 0,3
22.09.2018 22:00:00 11,3 7,9 10,3 11,4 15,0 17,0 17,4 31 17 58 32 WSW 1011,6 36 0 0,0
22.09.2018 21:00:00 11,6 7,4 10,4 11,5 15,2 17,0 17,4 34 18 66 36 W 1011,6 39 0 0,3
22.09.2018 20:00:00 11,4 6,6 9,2 12,2 15,5 17,0 17,4 44 24 70 38 W 1011,4 22 0 0,4
22.09.2018 19:00:00 13,1 7,4 12,2 13,1 15,7 17,0 17,4 44 24 58 31 WSW 1011,2 38 17 0,0
22.09.2018 18:00:00 13,0 8,2 12,7 14,1 15,8 17,0 17,3 41 22 72 39 WSW 1011,5 33 14 0,1
22.09.2018 17:00:00 14,1 9,0 13,7 15,5 15,7 17,0 17,3 49 26 71 38 WSW 1011,6 42 40 0,0
22.09.2018 16:00:00 14,2 7,9 14,0 15,7 15,6 17,0 17,2 55 30 75 41 WSW 1011,7 51 34 0,0
22.09.2018 15:00:00 12,7 8,8 13,1 15,2 15,5 17,0 17,1 52 28 79 43 WSW 1011,9 35 18 0,1
22.09.2018 14:00:00 13,9 8,7 14,9 15,4 15,3 17,0 17,1 42 23 69 37 WSW 1011,7 48 23 0,7
22.09.2018 13:00:00 15,1 8,2 16,4 15,6 15,1 17,0 17,1 42 23 69 38 WSW 1012,1 46 28 0,0
22.09.2018 12:00:00 14,7 7,4 16,6 15,5 14,8 17,0 17,2 48 26 63 34 WSW 1012,1 29 42 0,0
22.09.2018 11:00:00 14,2 8,2 15,3 14,4 14,7 17,0 17,2 44 24 57 31 WSW 1012,1 29 47 0,0
22.09.2018 10:00:00 13,9 7,0 14,6 12,5 14,7 17,0 17,2 46 25 62 33 W 1011,5 42 48 0,0
22.09.2018 09:00:00 13,5 7,9 13,4 11,8 14,8 17,0 17,3 44 24 61 33 W 1010,8 44 6 0,0
22.09.2018 08:00:00 12,9 7,2 12,2 11,7 14,9 17,0 17,3 46 25 64 34 W 1010,1 38 0 0,0
22.09.2018 07:00:00 12,3 7,9 11,7 11,5 15,0 17,0 17,3 46 25 72 39 W 1009,0 40 0 0,0
22.09.2018 06:00:00 12,3 8,1 12,0 11,7 15,2 17,0 17,3 54 29 66 36 WSW 1008,5 50 0 0,0
22.09.2018 05:00:00 12,1 8,0 11,4 11,4 15,4 17,0 17,3 53 28 77 41 WSW 1008,0 45 0 0,0
22.09.2018 04:00:00 12,2 7,7 11,7 11,7 15,6 17,0 17,3 52 28 69 37 WSW 1007,4 50 0 0,0
22.09.2018 03:00:00 11,6 7,1 11,2 11,7 15,9 17,0 17,3 41 22 74 40 WSW 1006,8 62 0 0,0
22.09.2018 02:00:00 11,8 7,2 11,2 11,6 16,1 17,0 17,4 38 21 72 39 WSW 1006,3 60 0 0,0
22.09.2018 01:00:00 11,8 7,6 11,2 11,8 16,5 17,0 17,4 41 22 79 43 SW 1006,2 50 0 0,0
22.09.2018 00:00:00 12,4 6,6 11,3 11,7 16,9 17,0 17,5 52 28 74 40 WSW 1005,8 50 0 0,0
21.09.2018 23:00:00 12,7 6,0 11,5 12,1 17,3 17,0 17,7 58 31 79 43 WSW 1005,3 42 0 0,0
21.09.2018 22:00:00 13,3 5,4 12,2 12,9 17,8 17,0 17,8 61 33 76 41 W 1004,5 46 0 0,0
21.09.2018 21:00:00 13,8 7,7 13,1 13,7 18,2 17,0 18,0 55 30 72 39 WSW 1003,9 40 0 0,0
21.09.2018 20:00:00 13,4 8,5 12,4 14,5 18,7 17,0 18,2 59 32 76 41 W 1003,1 46 0 0,0
21.09.2018 19:00:00 14,5 9,8 13,3 15,4 19,2 17,0 18,3 48 26 66 36 WSW 1002,7 39 0 0,4
21.09.2018 18:00:00 13,9 10,9 12,6 16,3 19,6 17,0 18,4 50 27 68 37 WSW 1003,1 13 0 1,4
21.09.2018 17:00:00 13,6 12,3 12,9 17,6 19,9 17,0 18,6 49 26 86 47 W 1002,1 8 0 3,8
21.09.2018 16:00:00 15,6 14,0 14,8 21,9 19,8 17,0 18,6 68 37 102 55 W 1000,6 8 0 0,9
21.09.2018 15:00:00 26,6 10,0 27,0 23,3 19,5 17,0 18,6 47 26 67 36 SW 998,4 28 9 0,0
21.09.2018 14:00:00 26,3 12,6 27,2 23,0 19,1 17,0 18,5 44 24 67 36 SSW 999,7 31 28 0,0
21.09.2018 13:00:00 26,7 12,7 28,2 22,5 18,8 16,9 18,5 46 25 63 34 SSW 1000,3 24 46 0,0
21.09.2018 12:00:00 22,6 14,4 23,7 21,7 18,5 16,9 18,5 36 19 54 29 S 1001,2 34 56 0,0
21.09.2018 11:00:00 22,4 13,8 23,7 19,8 18,3 16,9 18,4 39 21 48 26 S 1002,2 30 60 0,0
21.09.2018 10:00:00 20,1 13,7 21,0 18,1 18,3 16,9 18,3 31 17 43 23 S 1003,2 41 60 0,0
21.09.2018 09:00:00 20,1 11,9 19,7 17,4 18,3 16,9 18,3 35 19 51 27 SSW 1004,2 61 59 0,0
21.09.2018 08:00:00 19,3 12,6 18,4 17,3 18,4 16,9 18,3 32 17 44 24 S 1004,9 44 21 0,0
21.09.2018 07:00:00 18,7 14,0 17,7 17,3 18,6 16,9 18,2 32 17 40 22 S 1005,8 37 0 0,0
21.09.2018 06:00:00 18,9 13,8 17,7 17,4 18,7 16,9 18,2 27 14 37 20 S 1006,7 38 0 0,0
21.09.2018 05:00:00 18,7 14,0 17,7 17,5 18,8 16,9 18,1 28 15 36 19 S 1007,7 33 0 0,0
21.09.2018 04:00:00 18,2 14,4 17,2 17,6 19,0 16,9 18,1 22 12 29 16 S 1008,7 33 0 0,0
21.09.2018 03:00:00 18,6 13,7 17,5 17,8 19,2 16,9 18,0 24 13 30 16 S 1009,6 35 0 0,0
21.09.2018 02:00:00 18,4 14,2 17,4 18,2 19,3 16,9 18,0 22 12 31 17 S 1010,4 34 0 0,0
21.09.2018 01:00:00 19,0 14,1 18,0 18,3 19,5 16,9 18,0 21 11 27 15 S 1010,9 36 0 0,0
21.09.2018 00:00:00 19,0 14,0 17,9 18,4 19,7 16,9 18,0 21 11 27 15 SSW 1011,6 24 0 0,0
20.09.2018 23:00:00 18,5 13,5 16,9 18,8 19,9 16,9 18,0 20 11 23 12 SSW 1012,2 31 0 0,0
20.09.2018 22:00:00 18,9 14,7 17,5 19,2 20,2 16,9 18,0 15 8 16 9 S 1012,4 39 0 0,0
20.09.2018 21:00:00 19,4 14,4 17,0 19,9 20,4 16,9 18,0 12 7 14 8 S 1012,8 43 0 0,0
20.09.2018 20:00:00 20,3 13,6 18,7 20,7 20,5 16,9 18,0 10 5 13 7 SW 1013,2 39 0 0,0
20.09.2018 19:00:00 20,9 13,7 19,4 22,1 20,5 16,9 18,1 9 5 18 10 WSW 1013,4 43 28 0,0
20.09.2018 18:00:00 22,1 13,5 22,3 22,9 20,5 16,9 18,1 14 8 22 12 W 1013,7 52 0 0,0
20.09.2018 17:00:00 22,7 13,9 23,3 23,8 20,3 16,9 18,1 16 9 33 18 WSW 1014,0 36 9 0,0
20.09.2018 16:00:00 23,1 13,7 24,2 24,4 19,9 16,8 18,1 27 15 41 22 WSW 1014,1 52 6 0,0
20.09.2018 15:00:00 23,7 13,2 25,5 24,9 19,5 16,8 18,1 31 17 55 30 WSW 1014,3 43 59 0,0
20.09.2018 14:00:00 24,0 13,1 27,4 24,2 19,0 16,8 18,0 36 20 51 28 WSW 1014,6 36 60 0,0
20.09.2018 13:00:00 22,4 13,2 25,2 23,0 18,5 16,8 17,9 35 19 47 26 WSW 1015,0 30 60 0,0
20.09.2018 12:00:00 21,8 13,6 24,5 21,4 18,2 16,8 17,9 32 18 48 26 WSW 1015,3 39 60 0,0
20.09.2018 11:00:00 20,8 13,2 22,9 19,4 18,0 16,8 17,8 34 18 44 24 SW 1015,5 31 52 0,0
20.09.2018 10:00:00 19,1 12,9 19,0 17,8 18,0 16,8 17,8 30 16 40 22 SW 1015,7 35 56 0,0
20.09.2018 09:00:00 18,9 13,4 18,7 16,9 18,1 16,8 17,8 26 14 36 19 SW 1015,5 34 56 0,0
20.09.2018 08:00:00 16,7 13,0 15,8 16,5 18,3 16,8 17,8 21 11 32 18 WSW 1015,4 33 0 0,0
20.09.2018 07:00:00 16,5 12,7 15,3 16,7 18,4 16,8 17,9 24 13 31 17 SW 1015,0 30 0 0,0
20.09.2018 06:00:00 17,4 13,2 16,0 17,0 18,6 16,8 17,7 25 13 41 22 WSW 1015,1 34 0 0,0
20.09.2018 05:00:00 18,0 13,0 16,7 17,2 18,7 16,8 17,8 29 16 40 22 WSW 1014,9 39 0 0,0
20.09.2018 04:00:00 18,7 13,3 17,4 17,2 18,9 16,8 17,9 25 13 35 19 WSW 1014,9 33 0 0,0
20.09.2018 03:00:00 18,3 13,7 16,7 17,5 19,1 16,8 17,8 23 12 30 16 WSW 1014,8 29 0 0,0
20.09.2018 02:00:00 17,0 14,2 15,5 17,9 19,3 16,8 17,9 24 13 30 16 WSW 1014,9 26 0 0,0
20.09.2018 01:00:00 19,3 14,2 18,0 18,5 19,5 16,8 18,0 24 13 40 22 W 1015,0 27 0 0,0
20.09.2018 00:00:00 20,1 13,6 18,7 18,7 19,7 16,8 18,0 30 16 41 22 WSW 1014,7 34 0 0,0
19.09.2018 23:00:00 19,5 14,2 18,2 19,1 20,0 16,8 18,1 24 13 31 17 SSW 1014,5 40 0 0,0
19.09.2018 22:00:00 19,9 14,3 18,8 19,4 20,2 16,8 18,1 21 11 24 13 S 1014,8 41 0 0,0
19.09.2018 21:00:00 19,2 15,7 18,0 20,0 20,4 16,8 18,1 18 10 23 12 SE 1015,1 34 0 0,0
19.09.2018 20:00:00 18,4 15,8 17,1 20,9 20,6 16,8 18,2 19 11 23 12 ESE 1015,0 33 0 0,0
19.09.2018 19:00:00 19,2 15,7 18,8 22,3 20,7 16,7 18,3 14 7 18 10 ESE 1015,2 26 48 0,0
19.09.2018 18:00:00 23,1 11,9 23,3 23,8 20,5 16,7 18,3 10 5 19 11 SW 1015,1 55 60 0,0
19.09.2018 17:00:00 21,9 13,5 24,0 25,1 20,2 16,7 18,2 18 10 30 16 W 1015,9 34 60 0,0
19.09.2018 16:00:00 23,6 13,0 26,9 25,5 19,7 16,7 18,2 22 12 39 21 WSW 1015,9 63 60 0,0

tt = Température de l'air
td = dewpoint
tt 5cm = Température de l'air 5cm
tt -5cm = Température de l'air -5cm
tt -20cm = Température de l'air -20cm
tt -100cm = Température de l'air -100cm
tw = water temperature
ff = Vitesse du vent
fx = gusts
dd = Direction du vent
ppp = reduced air pressure
vv = visibility
sd = Ensoleillement
rr = Quantités de précipitations

stations d'obs. à proximité